Weather History for Lincoln, NE

Change the Weather History Date:

Thursday, November 7, 2013

  Actual Average Record
Temperature  
Mean Temperature 39 °F 44 °F  
Max Temperature 52 °F 55 °F 78 °F (1931)
Min Temperature 26 °F 32 °F 0 °F (1991)
Degree Days  
Heating Degree Days 26 21  
Month to date heating degree days 153 139  
Since 1 July heating degree days 609 618  
Cooling Degree Days 0 0  
Month to date cooling degree days 0 0  
Year to date cooling degree days 1236 1173  
Moisture  
Dew Point 24 °F    
Average Humidity 60    
Maximum Humidity 92    
Minimum Humidity 27    
Precipitation  
Precipitation 0.00 in 0.05 in 0.80 in (2011)
Month to date precipitation 1.20 0.39  
Year to date precipitation 26.47 26.96  
Snow  
Snow 0.00 in 0.00 in - ()
Month to date snowfall T 0.3  
Since 1 July snowfall T 1.0  
Snow Depth 0.00 in    
Sea Level Pressure  
Sea Level Pressure 30.38 in    
Wind  
Wind Speed 7 mph (WNW)    
Max Wind Speed 18 mph    
Max Gust Speed 23 mph    
Visibility 10 miles    
Events      
T = Trace of Precipitation, MM = Missing Value Source: NWS Daily Summary

Daily Weather History Graph

Daily Weather History Graph

Search for Another Location

Airport:

Trip Planner

Search our weather history database for the weather conditions in past years. The results will help you decide how hot, cold, wet, or windy it might be!

Date:

Astronomy

Nov. 07, 2013 Rise Set
Actual Time 7:05 AM CST 5:15 PM CST
Civil Twilight 6:36 AM CST 5:44 PM CST
Nautical Twilight 6:03 AM CST 6:17 PM CST
Astronomical Twilight 5:31 AM CST 6:49 PM CST
Moon 11:14 AM CST (11/7) 9:28 PM CST (11/7)
Length of Visible Light 11h 08m
Length of Day
10h 10m
Waxing Crescent, 23% of the Moon is Illuminated
Nov 7
Waxing Crescent
Nov 9
First Quarter
Nov 17
Full
Nov 25
Last Quarter
Dec 2
New

Hourly Weather History & Observations

Time (CST) Temp. Windchill Dew Point Humidity Pressure Visibility Wind Dir Wind Speed Gust Speed Precip Events Conditions
12:54 AM 33.1 °F 30.0 °F 28.9 °F 85% 30.33 in 10.0 mi WSW 3.5 mph - N/A   Clear
1:54 AM 33.1 °F - 28.9 °F 85% 30.33 in 10.0 mi Calm Calm - N/A   Clear
2:54 AM 30.9 °F - 27.0 °F 85% 30.33 in 10.0 mi Calm Calm - N/A   Clear
3:54 AM 27.0 °F 23.0 °F 25.0 °F 92% 30.35 in 10.0 mi SSW 3.5 mph - N/A   Clear
4:54 AM 32.0 °F 28.7 °F 27.0 °F 82% 30.36 in 10.0 mi WNW 3.5 mph - N/A   Clear
5:54 AM 32.0 °F 27.5 °F 27.0 °F 82% 30.39 in 10.0 mi SW 4.6 mph - N/A   Clear
6:54 AM 34.0 °F 24.6 °F 28.0 °F 79% 30.40 in 10.0 mi NW 13.8 mph - N/A   Clear
7:54 AM 35.1 °F 25.9 °F 28.0 °F 76% 30.42 in 10.0 mi NW 13.8 mph - N/A   Clear
8:54 AM 39.0 °F 32.3 °F 28.0 °F 65% 30.44 in 10.0 mi WNW 10.4 mph - N/A   Clear
9:54 AM 43.0 °F 35.7 °F 26.1 °F 51% 30.45 in 10.0 mi NW 15.0 mph - N/A   Clear
10:54 AM 46.0 °F 39.3 °F 21.9 °F 39% 30.46 in 10.0 mi NNW 16.1 mph - N/A   Clear
11:54 AM 48.0 °F - 19.0 °F 32% 30.44 in 10.0 mi NW 15.0 mph 21.9 mph N/A   Clear
12:54 PM 50.0 °F - 19.9 °F 31% 30.41 in 10.0 mi NNW 12.7 mph - N/A   Clear
1:54 PM 50.0 °F - 18.0 °F 28% 30.40 in 10.0 mi NNW 11.5 mph 21.9 mph N/A   Clear
2:54 PM 51.1 °F - 19.0 °F 28% 30.39 in 10.0 mi WNW 11.5 mph - N/A   Clear
3:54 PM 51.1 °F - 21.0 °F 31% 30.39 in 10.0 mi NW 8.1 mph - N/A   Clear
4:54 PM 45.0 °F 41.8 °F 23.0 °F 42% 30.38 in 10.0 mi North 5.8 mph - N/A   Clear
5:54 PM 39.0 °F - 23.0 °F 53% 30.38 in 10.0 mi Calm Calm - N/A   Clear
6:54 PM 39.0 °F - 26.1 °F 60% 30.38 in 10.0 mi Calm Calm - N/A   Clear
7:54 PM 34.0 °F - 25.0 °F 70% 30.38 in 10.0 mi Calm Calm - N/A   Clear
8:54 PM 34.0 °F - 25.0 °F 70% 30.36 in 10.0 mi Calm Calm - N/A   Clear
9:54 PM 33.1 °F - 25.0 °F 72% 30.35 in 10.0 mi Calm Calm - N/A   Clear
10:54 PM 32.0 °F 26.4 °F 24.1 °F 73% 30.32 in 10.0 mi South 5.8 mph - N/A   Clear
11:54 PM 32.0 °F 27.5 °F 25.0 °F 75% 30.30 in 10.0 mi SSE 4.6 mph - N/A   Clear